2023/06/16 00:00:00, 0.2,15.7
2023/06/16 00:10:00, 0.3,15.7
2023/06/16 00:20:00, 0.3,15.6
2023/06/16 00:30:00, 0.3,15.6
2023/06/16 00:40:00, 0.4,15.6
2023/06/16 00:50:00, 0.3,15.6
2023/06/16 01:00:00, 0.3,15.4
2023/06/16 01:10:00, 0.3,15.4
2023/06/16 01:20:00, 0.3,15.5
2023/06/16 01:30:00, 0.3,15.2
2023/06/16 01:40:00, 0.3,15.4
2023/06/16 01:50:00, 0.3,15.6
2023/06/16 02:00:00, 0.3,15.4
2023/06/16 02:10:00, 0.4,15.2
2023/06/16 02:20:00, 0.3,15.0
2023/06/16 02:30:00, 0.4,15.3
2023/06/16 02:40:00, 0.3,15.1
2023/06/16 02:50:00, 0.3,15.2
2023/06/16 03:00:00, 0.3,14.9
2023/06/16 03:10:00, 0.2,15.1
2023/06/16 03:20:00, 0.2,14.8
2023/06/16 03:30:00, 0.2,15.1
2023/06/16 03:40:00, 0.2,15.0
2023/06/16 03:50:00, 0.3,15.1
2023/06/16 04:00:00, 0.3,15.2
2023/06/16 04:10:00, 0.3,15.1
2023/06/16 04:20:00, 0.3,15.2
2023/06/16 04:30:00, 0.3,15.5
2023/06/16 04:40:00, 0.3,15.1
2023/06/16 04:50:00, 0.3,15.2
2023/06/16 05:00:00, 0.3,15.4
2023/06/16 05:10:00, 0.3,15.2
2023/06/16 05:20:00, 0.3,15.0
2023/06/16 05:30:00, 0.3,15.1
2023/06/16 05:40:00, 0.3,15.1
2023/06/16 05:50:00, 0.3,15.2
2023/06/16 06:00:00, 0.3,15.2
2023/06/16 06:10:00, 0.3,15.4
2023/06/16 06:20:00, 0.3,15.5
2023/06/16 06:30:00, 0.4,15.8
2023/06/16 06:40:00, 0.4,15.8
2023/06/16 06:50:00, 0.3,15.6
2023/06/16 07:00:00, 0.3,16.3
2023/06/16 07:10:00, 0.3,16.8
2023/06/16 07:20:00, 0.3,17.9
2023/06/16 07:30:00, 0.3,17.2
2023/06/16 07:40:00, 0.4,18.3
2023/06/16 07:50:00, 0.4,19.0
2023/06/16 08:00:00, 0.4,20.0
2023/06/16 08:10:00, 0.3,20.2
2023/06/16 08:20:00, 0.3,20.4
2023/06/16 08:30:00, 0.3,20.1
2023/06/16 08:40:00, 0.3,20.8
2023/06/16 08:50:00, 0.3,20.6
2023/06/16 09:00:00, 0.2,20.7
2023/06/16 09:10:00, 0.3,22.3
2023/06/16 09:20:00, 0.2,22.6
2023/06/16 09:30:00, 0.2,23.7
2023/06/16 09:40:00, 0.2,22.8
2023/06/16 09:50:00, 0.3,22.0
2023/06/16 10:00:00, 0.3,23.5
2023/06/16 10:10:00, 0.3,24.1
2023/06/16 10:20:00, 0.2,22.4
2023/06/16 10:30:00, 0.2,22.5
2023/06/16 10:40:00, 0.3,23.0
2023/06/16 10:50:00, 0.4,24.0
2023/06/16 11:00:00, 0.4,24.8
2023/06/16 11:10:00, 0.2,23.6
2023/06/16 11:20:00, 0.2,23.1
2023/06/16 11:30:00, 0.3,24.7
2023/06/16 11:40:00, 0.4,25.8
2023/06/16 11:50:00, 0.3,24.6
2023/06/16 12:00:00, 0.4,26.0
2023/06/16 12:10:00, 0.4,26.8
2023/06/16 12:20:00, 0.5,25.7
2023/06/16 12:30:00, 0.3,25.6
2023/06/16 12:40:00, 0.3,26.5
2023/06/16 12:50:00, 0.5,27.7
2023/06/16 13:00:00, 0.4,28.3
2023/06/16 13:10:00, 0.4,28.9
2023/06/16 13:20:00, 0.5,29.0
2023/06/16 13:30:00, 0.5,27.8
2023/06/16 13:40:00, 0.5,27.4
2023/06/16 13:50:00, 0.4,27.6
2023/06/16 14:00:00, 0.1,25.9
2023/06/16 14:10:00, 0.1,26.2
2023/06/16 14:20:00, 0.2,27.3
2023/06/16 14:30:00, 0.2,27.9
2023/06/16 14:40:00, 0.2,27.2
2023/06/16 14:50:00, 0.2,28.6
2023/06/16 15:00:00, 0.3,29.4
2023/06/16 15:10:00, 0.4,29.0
2023/06/16 15:20:00, 0.5,29.4
2023/06/16 15:30:00, 0.5,29.3
2023/06/16 15:40:00, 0.4,29.7
2023/06/16 15:50:00, 0.4,30.7
2023/06/16 16:00:00, 0.5,31.4
2023/06/16 16:10:00, 0.4,31.2
2023/06/16 16:20:00, 0.4,33.2
2023/06/16 16:30:00, 0.3,31.2
2023/06/16 16:40:00, 0.4,33.6
2023/06/16 16:50:00, 0.3,34.2
2023/06/16 17:00:00, 0.3,32.8
2023/06/16 17:10:00, 0.3,32.7
2023/06/16 17:20:00, 0.3,32.0
2023/06/16 17:30:00, 0.2,32.4
2023/06/16 17:40:00, 0.1,32.2
2023/06/16 17:50:00, 0.0,31.8
2023/06/16 18:00:00, 0.1,31.6
2023/06/16 18:10:00, 0.0,29.2
2023/06/16 18:20:00, 0.0,24.3
2023/06/16 18:30:00, 0.1,22.7
2023/06/16 18:40:00, 0.1,22.0
2023/06/16 18:50:00, 0.1,21.4
2023/06/16 19:00:00, 0.2,20.7
2023/06/16 19:10:00, 0.2,20.2
2023/06/16 19:20:00, 0.2,19.8
2023/06/16 19:30:00, 0.2,19.6
2023/06/16 19:40:00, 0.2,19.4
2023/06/16 19:50:00, 0.2,19.2
2023/06/16 20:00:00, 0.1,18.8
2023/06/16 20:10:00, 0.2,18.6
2023/06/16 20:20:00, 0.2,18.3
2023/06/16 20:30:00, 0.2,18.1
2023/06/16 20:40:00, 0.3,18.0
2023/06/16 20:50:00, 0.3,17.6
2023/06/16 21:00:00, 0.3,17.7
2023/06/16 21:10:00, 0.3,17.4
2023/06/16 21:20:00, 0.3,17.3
2023/06/16 21:30:00, 0.3,17.0
2023/06/16 21:40:00, 0.3,16.9
2023/06/16 21:50:00, 0.3,17.2
2023/06/16 22:00:00, 0.3,16.9
2023/06/16 22:10:00, 0.3,16.9
2023/06/16 22:20:00, 0.3,16.9
2023/06/16 22:30:00, 0.3,17.1
2023/06/16 22:40:00, 0.3,17.3
2023/06/16 22:50:00, 0.3,17.1
2023/06/16 23:00:00, 0.3,17.3
2023/06/16 23:10:00, 0.3,17.5
2023/06/16 23:20:00, 0.3,17.2
2023/06/16 23:30:00, 0.3,17.1
2023/06/16 23:40:00, 0.3,17.3
2023/06/16 23:50:00, 0.3,17.3
